Location: Chiroubles
(46.1812°N, 4.6660°E)
Time: 15:46:30
(UTC+00:00)

ISS - Pass Details

Date: 05 November 2020
Orbit: 418 x 420 km, 51.6° (Epoch: 30 November)

Event Time Altitude Azimuth Distance (km) Brightness Sun altitude
Exits shadow 05:43:13 11° 297° (WNW) 1,459 -1.7 -8.3°
Maximum altitude 05:46:29 86° 210° (SSW) 427 -3.7 -7.7°
Drops below altitude 10° 05:49:52 10° 120° (ESE) 1,502 0.6 -7.2°
Sets 05:51:58 0° 120° (ESE) 2,364 2.0 -6.8°
